Terug naar catalogus

BREEZE-M DEB

TANK

ActiefHEO
NORAD 36399·DEBRIS·🇷🇺 Russia

Gelanceerd Feb 12, 2010 vanaf Baikonur Cosmodrome

Loading…

Volgende Passages (komende 24 uur)

TLE

VersSource: Space-Track

Epoch: Sep 12, 2026, 22:11 UTC

1 36399U 10006C   26255.92478979 -.00000009  00000-0  67278-3 0  9995
2 36399  45.9556 311.5808 7208930 235.8843  34.5859  2.26705319135956

Volg BREEZE-M DEB in realtime met AllMySat

Download on the App Store